[[{"header":{"parameterUnit":"m.s-1","parameterCategory":1,"la1":30.2991,"la2":30.254,"lo1":-89.0895,"lo2":-89.0444,"dy":0.0017,"dx":0.0017,"nx":28,"ny":28,"refTime":"2025-03-22T03:00:00:Z","depth":0,"parameterNumber":2,"parameterNumberName":"U-component_of_WINDS"},"data":[0,0,0,0,0,0,0,0,0,0,0,0,0,0,0,0,0,0,0,0,0,0,0,0,0,0,0,0,0,0,0,0,0,0,0,0,0,0,0,0,0,0,0,0,0,0,0,0,0,0,0,0,0,0,0,0,0,0,0.8422,0.8424,0,0.8572,0.8574,0.8575,0.8609,0.8608,0.8607,0.8606,0.8764,0.8769,0.8774,0,0,0,0,0,0,0,0,0,0,0,0,0,0.817,0.8174,0.8422,0.8424,0.8426,0.8572,0.8574,0.8576,0.8609,0.8608,0.8607,0.8605,0.8762,0.8768,0.8775,0,0,0,0,0,0,0,0,0,0,0,0,0,0.8295,0.8175,0.8422,0.846,0.8465,0.8571,0.8574,0.8576,0.8609,0.8608,0.8606,0.8605,0.876,0.8768,0.8776,0.8856,0,0,0.8799,0.8803,0,0,0,0,0,0,0,0,0.8288,0.8305,0.8452,0.8457,0.8463,0.857,0.8543,0.867,0.861,0.8555,0.8606,0.8604,0.8701,0.8714,0.8745,0.8863,0.887,0.88,0.8805,0.8808,0.881,0,0,0,0,0,0,0,0.8279,0.8298,0.8481,0.8455,0.8461,0.8471,0.8487,0.8567,0.8635,0.8559,0.8562,0.8579,0.8704,0.8738,0.8749,0.8872,0.88,0.8807,0.8812,0.8815,0.9065,0.9066,0,0,0,0,0,0,0.8263,0.8291,0.8477,0.8486,0.837,0.8477,0.8495,0.8537,0.8634,0.8648,0.858,0.858,0.8725,0.874,0.8755,0.8856,0.8808,0.8815,0.882,0.9063,0.9065,0.9067,0,0,0,0,0,0,0.8258,0.828,0.8471,0.8389,0.8414,0.8483,0.853,0.8541,0.8575,0.865,0.8663,0.8602,0.8725,0.8744,0.883,0.8862,0.8819,0.8826,0.906,0.9063,0.9066,0.9058,0,0,0,0,0,0,0.825,0.8277,0.8307,0.8389,0.8418,0.8542,0.8532,0.8545,0.8588,0.8589,0.8674,0.8687,0.8725,0.8818,0.8838,0.8872,0.8832,0.9058,0.9062,0.9065,0.9055,0.906,0.9064,0,0,0,0,0,0.8241,0.83,0.8309,0.8331,0.8457,0.8544,0.856,0.8601,0.859,0.8622,0.867,0.8684,0.8855,0.8827,0.8849,0.8886,0.9056,0.9061,0.9065,0.9054,0.9059,0.9064,0,0,0,0,0,0,0.8221,0.8311,0.8322,0.8409,0.8468,0.8549,0.859,0.8606,0.8671,0.8669,0.8719,0.8738,0.8821,0.8863,0.883,0.8969,0.8955,0.8964,0.8939,0.8945,0.8949,0.8938,0.8839,0,0,0,0,0,0.8227,0.8288,0.8364,0.8433,0.8462,0.8521,0.856,0.8587,0.8651,0.8676,0.8731,0.8794,0.8862,0.8906,0.8972,0.9061,0.9081,0.9098,0.9102,0.9105,0.9112,0.9163,0.9172,0.9082,0.9081,0.9081,0,0,0.8239,0.8296,0.8332,0.8431,0.848,0.8543,0.8542,0.8609,0.8657,0.8687,0.8772,0.8814,0.8888,0.8975,0.9017,0.9012,0.9142,0.911,0.9112,0.9118,0.9169,0.9177,0.9185,0.9084,0.9084,0.9083,0,0,0.8294,0.8343,0.8406,0.8455,0.8529,0.8567,0.8582,0.8661,0.869,0.8775,0.8799,0.8858,0.8974,0.9025,0.9066,0.9141,0.9157,0.9162,0.9184,0.9233,0.924,0.9246,0.9273,0.9283,0.9169,0.9169,0.9169,0,0.8301,0.8396,0.8437,0.8503,0.8546,0.8575,0.864,0.8686,0.8778,0.8808,0.8801,0.8947,0.8999,0.91,0.9118,0.915,0.917,0.9152,0.9235,0.9242,0.9249,0.9275,0.9285,0.9169,0.9169,0.9169,0.9169,0,0.8401,0.8466,0.8509,0.8596,0.8644,0.8709,0.8762,0.8806,0.8828,0.8868,0.8955,0.9018,0.9098,0.9124,0.9147,0.9228,0.9223,0.9225,0.9212,0.9257,0.9283,0.9293,0.9169,0.9169,0.9169,0.9169,0,0,0.8447,0.8556,0.8571,0.8611,0.8694,0.8747,0.8814,0.8891,0.8928,0.8991,0.9049,0.9147,0.9149,0.9196,0.9225,0.9268,0.9324,0.9265,0.9268,0.9274,0.9418,0.9416,0.9427,0.9334,0.9336,0.9338,0.9412,0,0.8513,0.8632,0.8671,0.8771,0.8833,0.8861,0.892,0.8978,0.9017,0.9077,0.9121,0.9189,0.9187,0.9215,0.9259,0.9307,0.9353,0.9303,0.9391,0.9393,0.9371,0.9441,0.9439,0.9505,0.9422,0.9424,0.9425,0,0.8605,0.8668,0.8774,0.8849,0.8877,0.8929,0.9003,0.9059,0.9126,0.9152,0.9204,0.923,0.9303,0.9285,0.9387,0.9351,0.939,0.9419,0.9423,0.9433,0.9412,0.9453,0.9528,0.9538,0.9441,0.944,0.9439,0,0.8629,0.874,0.8818,0.8851,0.8942,0.8978,0.9017,0.9083,0.9127,0.9192,0.9221,0.9294,0.9334,0.9391,0.9436,0.9419,0.9534,0.9521,0.9559,0.9558,0.9582,0.958,0.9664,0.9606,0.9606,0.9606,0.9605,0,0.8699,0.8762,0.883,0.8878,0.895,0.8995,0.9066,0.9108,0.9166,0.9223,0.9253,0.9306,0.9363,0.9424,0.946,0.954,0.9558,0.9581,0.959,0.9579,0.9576,0.9605,0.9602,0.9608,0.9608,0.9607,0.9607,0,0.8738,0.8785,0.8872,0.895,0.8971,0.9021,0.9089,0.9137,0.9177,0.925,0.9269,0.9333,0.9407,0.9458,0.9553,0.9577,0.9663,0.9671,0.964,0.9644,0.968,0.9676,0.9786,0.9803,0.9733,0.9733,0.9734,0,0.8779,0.8828,0.8911,0.8951,0.899,0.9054,0.9099,0.9145,0.9191,0.9271,0.931,0.9385,0.9448,0.9565,0.9621,0.9694,0.9704,0.9738,0.9716,0.9703,0.9706,0.9702,0.9708,0.9742,0.9742,0.9742,0.9743,0,0.8847,0.8868,0.893,0.9001,0.9053,0.9111,0.917,0.9201,0.9258,0.9308,0.9383,0.9431,0.9528,0.9603,0.9681,0.9724,0.9744,0.9749,0.9762,0.9751,0.9731,0.9743,0.9649,0.9747,0.9746,0.9746,0.9746,0.9746,0.8889,0.8934,0.8999,0.9068,0.9117,0.9171,0.922,0.9266,0.9329,0.941,0.9434,0.9512,0.9579,0.9686,0.973,0.9793,0.979,0.9809,0.9813,0.9817,0.9817,0.972,0.9807,0.9807,0.9807,0.9807,0.9807,0,0.8959,0.9002,0.9064,0.9145,0.9199,0.9211,0.9277,0.9322,0.9389,0.945,0.951,0.9597,0.967,0.9731,0.9807,0.9845,0.9856,0.9864,0.9862,0.9871,0.9815,0.9796,0.9854,0.9854,0.9854,0.9854,0.9854,0.9854,0.9001,0.9078,0.9107,0.921,0.9253,0.9329,0.9365,0.9416,0.9464,0.9559,0.9619,0.9658,0.9719,0.9799,0.9867,0.9883,0.991,0.9916,0.9934,0.988,0.9875,0.987,0.9853,0.9921,0.9921,0.9985,0.9986,0.9986]},{"header":{"parameterUnit":"m.s-1","parameterCategory":1,"la1":30.2991,"la2":30.254,"lo1":-89.0895,"lo2":-89.0444,"dy":0.0017,"dx":0.0017,"nx":28,"ny":28,"refTime":"2025-03-22T03:00:00:Z","depth":0,"parameterNumber":3,"parameterNumberName":"V-component_of_WINDS"},"data":[0,0,0,0,0,0,0,0,0,0,0,0,0,0,0,0,0,0,0,0,0,0,0,0,0,0,0,0,0,0,0,0,0,0,0,0,0,0,0,0,0,0,0,0,0,0,0,0,0,0,0,0,0,0,0,0,0,0,1.4635,1.4634,0,1.4602,1.4601,1.4601,1.4573,1.4572,1.4572,1.4572,1.4536,1.4535,1.4535,0,0,0,0,0,0,0,0,0,0,0,0,0,1.467,1.4669,1.4635,1.4634,1.4634,1.4602,1.4601,1.4601,1.4573,1.4572,1.4572,1.4572,1.4536,1.4535,1.4535,0,0,0,0,0,0,0,0,0,0,0,0,0,1.4647,1.4669,1.4635,1.4616,1.4614,1.4602,1.4601,1.4601,1.4573,1.4572,1.4572,1.4571,1.4537,1.4536,1.4535,1.4538,0,0,1.4532,1.4531,0,0,0,0,0,0,0,0,1.4649,1.4646,1.4619,1.4617,1.4615,1.4591,1.46,1.4579,1.4573,1.4588,1.4572,1.4571,1.4555,1.4552,1.4547,1.4536,1.4535,1.4531,1.4531,1.453,1.453,0,0,0,0,0,0,0,1.465,1.4647,1.4622,1.4619,1.4616,1.4608,1.4604,1.4596,1.4574,1.4587,1.4585,1.4581,1.4553,1.4548,1.4546,1.4534,1.4532,1.4531,1.453,1.453,1.452,1.4521,0,0,0,0,0,0,1.4655,1.4649,1.4623,1.4621,1.4631,1.4608,1.4604,1.4599,1.4574,1.457,1.4582,1.458,1.455,1.4547,1.4544,1.4544,1.453,1.453,1.4529,1.452,1.452,1.4521,0,0,0,0,0,0,1.4656,1.4653,1.4624,1.4634,1.463,1.4608,1.4603,1.4599,1.4593,1.4571,1.4566,1.4581,1.4549,1.4546,1.4539,1.4543,1.4529,1.4528,1.452,1.452,1.4521,1.4545,0,0,0,0,0,0,1.4657,1.4653,1.4656,1.4634,1.4629,1.462,1.4603,1.4598,1.4592,1.4589,1.4568,1.4564,1.4549,1.4541,1.4538,1.4541,1.4527,1.4519,1.452,1.452,1.4544,1.4546,1.4549,0,0,0,0,0,1.4658,1.4664,1.4656,1.4653,1.4632,1.4621,1.4618,1.46,1.4592,1.4593,1.4578,1.4565,1.4543,1.454,1.4537,1.454,1.4519,1.452,1.452,1.4543,1.4546,1.4549,0,0,0,0,0,0,1.4686,1.4661,1.4652,1.4651,1.4638,1.4616,1.4617,1.4604,1.4593,1.4591,1.4569,1.4565,1.456,1.4549,1.4547,1.4539,1.4529,1.4529,1.4547,1.455,1.4552,1.4554,1.4527,0,0,0,0,0,1.4693,1.4687,1.4665,1.4666,1.466,1.464,1.4634,1.4622,1.4607,1.4602,1.4586,1.4572,1.4561,1.4555,1.4544,1.4542,1.4536,1.4542,1.4544,1.4547,1.4547,1.4542,1.4544,1.4523,1.4523,1.4523,0,0,1.4705,1.4691,1.4688,1.4671,1.466,1.4653,1.4635,1.4629,1.4623,1.46,1.4593,1.4581,1.4563,1.4558,1.4555,1.4549,1.4551,1.4548,1.4549,1.4548,1.4543,1.4545,1.4546,1.4524,1.4524,1.4524,0,0,1.4724,1.4714,1.4712,1.4701,1.4684,1.4669,1.4669,1.4648,1.4639,1.4631,1.4613,1.4605,1.4588,1.4575,1.4567,1.4577,1.4564,1.4575,1.4587,1.4582,1.4584,1.4585,1.4587,1.4588,1.4575,1.4575,1.4575,0,1.4742,1.4732,1.4713,1.4707,1.4699,1.4678,1.4675,1.4665,1.4645,1.4639,1.4632,1.4609,1.4596,1.4586,1.4588,1.4582,1.4579,1.4577,1.4585,1.4586,1.4587,1.4589,1.459,1.4576,1.4576,1.4576,1.4576,0,1.4753,1.4746,1.4746,1.4727,1.4719,1.4715,1.4694,1.4688,1.4675,1.4661,1.4651,1.4635,1.4619,1.4616,1.4604,1.4603,1.4599,1.459,1.4578,1.4591,1.4592,1.4592,1.4578,1.4578,1.4577,1.4577,0,0,1.4789,1.4759,1.4759,1.4749,1.4727,1.472,1.4714,1.4699,1.4693,1.4679,1.4672,1.4656,1.4646,1.4636,1.4622,1.4619,1.4625,1.4608,1.4608,1.4611,1.4621,1.4628,1.4629,1.4616,1.4616,1.4616,1.4622,0,1.4803,1.4792,1.4774,1.4767,1.4759,1.4737,1.4731,1.4717,1.4703,1.4692,1.4677,1.4665,1.4654,1.4647,1.4643,1.4626,1.4627,1.4625,1.4607,1.4607,1.4612,1.463,1.4638,1.4644,1.4622,1.4622,1.4622,0,1.4819,1.4806,1.4798,1.4775,1.4771,1.4766,1.4749,1.474,1.4721,1.4711,1.4699,1.4683,1.4673,1.4663,1.4648,1.4647,1.4639,1.4629,1.4628,1.4626,1.4615,1.4626,1.4645,1.4646,1.4623,1.4623,1.4623,0,1.4843,1.4824,1.4817,1.4809,1.4782,1.4778,1.4767,1.4748,1.4739,1.4724,1.4717,1.4701,1.4692,1.4679,1.4658,1.4653,1.4644,1.4633,1.4634,1.4634,1.4633,1.4633,1.465,1.4629,1.4629,1.4629,1.4629,0,1.486,1.4856,1.4827,1.4822,1.4816,1.4795,1.4789,1.4775,1.4758,1.4749,1.4729,1.4721,1.4695,1.4683,1.4666,1.4655,1.4651,1.4641,1.4637,1.4643,1.4644,1.4636,1.4635,1.4629,1.4629,1.4629,1.4629,0,1.4887,1.4867,1.4857,1.4832,1.4826,1.4822,1.48,1.4793,1.4778,1.4766,1.4762,1.4737,1.4722,1.47,1.4678,1.4667,1.4657,1.4651,1.4663,1.466,1.4662,1.4662,1.4674,1.4674,1.4654,1.4655,1.4655,0,1.4898,1.4894,1.4868,1.4861,1.485,1.4839,1.4829,1.4807,1.4798,1.4775,1.4771,1.4754,1.4739,1.4714,1.4694,1.4676,1.4668,1.4673,1.4665,1.467,1.4666,1.4666,1.4665,1.4675,1.4676,1.4676,1.4676,0,1.492,1.491,1.4897,1.4881,1.487,1.4856,1.4841,1.4835,1.4809,1.4799,1.4783,1.4772,1.4749,1.4731,1.471,1.4696,1.4681,1.4679,1.4678,1.4683,1.469,1.4685,1.4667,1.4679,1.4678,1.4678,1.4678,1.4678,1.4938,1.4932,1.4913,1.4899,1.4885,1.4871,1.4863,1.4846,1.4832,1.4812,1.4799,1.4783,1.4762,1.4733,1.4719,1.4705,1.4699,1.4698,1.4698,1.4698,1.4699,1.4693,1.4702,1.4701,1.4701,1.4701,1.4701,0,1.4956,1.4942,1.493,1.4909,1.4897,1.4885,1.4867,1.4857,1.4844,1.4826,1.4811,1.4792,1.4774,1.4751,1.4732,1.4725,1.4717,1.472,1.472,1.4716,1.4706,1.4708,1.4726,1.4726,1.4726,1.4726,1.4726,1.4726,1.4965,1.4954,1.4942,1.4924,1.4909,1.4894,1.4885,1.4871,1.4856,1.4835,1.4821,1.4806,1.4785,1.4764,1.4746,1.474,1.4733,1.4738,1.4729,1.472,1.4717,1.4715,1.4717,1.4737,1.4737,1.474,1.474,1.474]}]]